�N����,����,�~����,�C��,���x,�C��,����,���ϕ���,�ő�u�ԕ���,�ő厞����,���˗�,�I�_���x,�n�����x,�ő啗���N��,DTYPE
"17/07/08","00:10",0.0,22.9,94.8,1006.2,295.5,1.5,2.1,318.6,0.00,22.1,25.6,"00:01:20",1
"17/07/08","00:20",0.0,22.9,94.8,1006.0,285.3,1.1,1.7,263.5,0.00,22.1,25.4,"00:11:20",1
"17/07/08","00:30",0.0,23.0,94.8,1006.2,293.2,1.1,1.7,302.3,0.00,22.2,25.2,"00:25:36",1
"17/07/08","00:40",0.0,22.9,94.9,1006.2,285.7,1.1,1.7,299.4,0.00,22.1,25.3,"00:30:40",1
"17/07/08","00:50",0.0,23.0,94.9,1006.0,284.5,1.1,1.7,268.9,0.00,22.2,25.3,"00:40:02",1
"17/07/08","01:00",0.0,22.9,94.8,1006.0,277.0,1.2,2.2,261.6,0.00,22.1,25.3,"00:54:32",1
"17/07/08","01:10",0.0,23.0,94.9,1006.4,298.0,1.5,3.4,325.1,0.00,22.2,25.4,"01:01:36",1
"17/07/08","01:20",0.0,22.9,94.6,1006.2,273.4,1.1,1.7,267.3,0.00,22.0,25.2,"01:15:12",1
"17/07/08","01:30",0.0,22.9,94.6,1006.0,287.3,1.1,1.6,278.6,0.00,22.0,25.4,"01:27:36",1
"17/07/08","01:40",0.0,22.8,94.7,1005.7,296.8,1.2,1.9,320.7,0.00,21.9,25.1,"01:33:52",1
"17/07/08","01:50",0.0,22.9,94.8,1006.0,310.4,1.5,3.1,325.5,0.00,22.1,25.2,"01:41:44",1
"17/07/08","02:00",0.0,22.9,94.7,1005.7,281.4,1.0,1.6,309.8,0.00,22.0,25.3,"01:59:44",1
"17/07/08","02:10",0.0,22.8,94.7,1006.0,294.0,1.2,2.0,327.6,0.00,21.9,25.2,"02:03:20",1
"17/07/08","02:20",0.0,22.7,94.7,1005.7,300.1,1.3,1.9,313.0,0.00,21.8,25.1,"02:15:28",1
"17/07/08","02:30",0.0,22.5,94.7,1006.0,292.6,1.2,1.9,315.8,0.00,21.6,25.0,"02:29:52",1
"17/07/08","02:40",0.0,22.5,95.0,1006.0,299.9,1.3,3.1,319.4,0.00,21.7,25.1,"02:37:12",1
"17/07/08","02:50",0.0,22.5,94.9,1006.2,300.4,0.8,1.6,305.7,0.00,21.7,25.0,"02:49:12",1
"17/07/08","03:00",0.0,22.4,94.9,1006.0,275.1,0.8,1.2,277.8,0.00,21.6,25.0,"02:55:36",1
"17/07/08","03:10",0.0,22.4,95.1,1006.0,296.9,1.2,1.9,325.3,0.00,21.6,24.7,"03:09:28",1
"17/07/08","03:20",0.0,22.5,95.3,1006.2,315.0,1.5,2.5,321.5,0.00,21.8,25.0,"03:19:44",1
"17/07/08","03:30",0.0,22.5,95.1,1006.2,305.2,1.6,2.4,321.3,0.00,21.7,24.9,"03:24:00",1
"17/07/08","03:40",0.0,22.4,95.1,1006.2,286.5,1.2,1.7,301.9,0.00,21.6,24.9,"03:30:40",1
"17/07/08","03:50",0.0,22.3,95.1,1006.2,281.5,1.0,1.3,271.5,0.00,21.5,24.8,"03:47:04",1
"17/07/08","04:00",0.0,22.2,95.3,1006.2,299.2,1.1,1.8,310.0,0.00,21.5,24.7,"03:58:32",1
"17/07/08","04:10",0.0,22.2,95.4,1006.4,291.3,1.1,1.8,309.2,0.00,21.5,24.5,"04:00:24",1
"17/07/08","04:20",0.0,22.2,95.4,1006.4,276.8,1.0,1.3,264.0,0.00,21.5,24.6,"04:12:00",1
"17/07/08","04:30",0.0,22.1,95.2,1006.2,282.3,1.0,1.3,300.6,0.00,21.3,24.8,"04:28:56",1
"17/07/08","04:40",0.0,22.0,95.5,1006.4,318.4,1.3,1.9,333.0,0.00,21.3,24.5,"04:34:00",1
"17/07/08","04:50",0.0,22.0,95.5,1006.4,296.4,1.1,1.7,318.0,0.00,21.3,24.6,"04:46:24",1
"17/07/08","05:00",0.0,21.9,95.5,1006.4,296.2,1.2,1.8,310.3,0.00,21.2,24.6,"04:57:36",1
"17/07/08","05:10",0.0,21.9,95.6,1006.4,309.0,1.5,2.5,334.9,0.00,21.2,24.4,"05:04:16",1
"17/07/08","05:20",0.0,21.9,95.6,1006.4,297.0,1.2,1.9,307.6,0.00,21.2,24.6,"05:18:48",1
"17/07/08","05:30",0.0,22.0,95.7,1006.2,277.0,1.1,1.6,259.7,0.00,21.3,24.3,"05:27:52",1
"17/07/08","05:40",0.0,21.9,95.7,1006.7,302.0,1.1,1.7,333.6,0.00,21.2,24.4,"05:39:20",1
"17/07/08","05:50",0.0,22.1,95.7,1006.4,295.8,1.3,2.1,310.8,0.00,21.4,24.3,"05:41:28",1
"17/07/08","06:00",0.0,22.3,95.7,1006.4,315.6,1.8,3.3,317.8,0.00,21.6,24.4,"05:53:44",1
"17/07/08","06:10",0.0,22.5,95.4,1006.9,291.5,1.3,2.2,312.5,0.01,21.8,24.5,"06:01:52",1
"17/07/08","06:20",0.0,22.6,95.3,1006.9,313.0,1.7,2.6,328.0,0.01,21.8,24.2,"06:18:32",1
"17/07/08","06:30",0.0,22.8,95.2,1006.9,318.5,2.1,3.1,331.0,0.02,22.0,24.4,"06:20:48",1
"17/07/08","06:40",0.0,23.3,95.1,1006.7,340.6,1.3,2.5,326.5,0.03,22.5,24.3,"06:30:08",1
"17/07/08","06:50",0.0,24.1,93.9,1006.9,327.3,1.0,1.8,328.2,0.05,23.1,24.4,"06:45:12",1
"17/07/08","07:00",0.0,24.9,89.3,1006.7,345.5,0.7,1.9,340.3,0.07,23.1,24.3,"06:52:24",1
"17/07/08","07:10",0.0,25.6,86.6,1006.4,353.2,0.6,1.2,344.6,0.10,23.2,24.3,"07:01:36",1
"17/07/08","07:20",0.0,26.2,85.0,1006.7,49.6,0.3,0.9,340.0,0.13,23.5,24.6,"07:11:28",1
"17/07/08","07:30",0.0,26.6,83.8,1006.7,106.7,0.2,0.8,120.1,0.15,23.7,24.5,"07:20:32",1
"17/07/08","07:40",0.0,26.7,82.6,1006.4,147.8,0.5,1.1,179.1,0.17,23.5,24.7,"07:37:44",1
"17/07/08","07:50",0.0,27.4,80.2,1005.7,113.2,0.6,1.3,125.9,0.20,23.7,24.7,"07:43:36",1
"17/07/08","08:00",0.0,27.3,81.2,1006.4,99.8,0.6,1.4,95.3,0.18,23.8,24.9,"07:55:12",1
"17/07/08","08:10",0.0,27.1,81.4,1006.7,98.9,0.7,1.7,110.1,0.16,23.7,25.0,"08:08:56",1
"17/07/08","08:20",0.0,27.8,81.1,1006.7,70.8,0.7,2.0,22.7,0.24,24.3,24.8,"08:13:20",1
"17/07/08","08:30",0.0,27.9,77.4,1006.0,118.4,0.8,2.1,130.3,0.28,23.6,25.2,"08:23:52",1
"17/07/08","08:40",0.0,28.3,78.0,1006.2,15.6,0.8,2.0,43.7,0.32,24.1,25.2,"08:30:48",1
"17/07/08","08:50",0.0,28.0,76.8,1006.2,41.6,1.0,2.4,85.0,0.29,23.6,25.3,"08:41:12",1
"17/07/08","09:00",0.0,29.1,75.9,1005.5,69.3,0.7,1.6,349.8,0.35,24.5,25.5,"08:50:32",1
"17/07/08","09:10",0.0,29.0,75.8,1005.7,77.1,0.7,2.6,53.0,0.33,24.3,25.7,"09:05:12",1
"17/07/08","09:20",0.0,29.3,75.6,1006.0,103.8,0.8,1.9,121.7,0.42,24.6,25.9,"09:12:08",1
"17/07/08","09:30",0.0,28.9,74.4,1005.7,62.2,0.7,1.8,358.1,0.29,23.9,25.9,"09:22:48",1
"17/07/08","09:40",0.0,28.6,76.1,1005.7,31.2,0.5,1.9,17.0,0.20,24.0,26.0,"09:32:16",1
"17/07/08","09:50",0.0,29.5,75.1,1005.7,170.8,0.8,2.0,174.7,0.33,24.7,26.3,"09:44:32",1
"17/07/08","10:00",0.0,29.6,73.9,1005.7,163.1,0.7,2.6,118.4,0.35,24.5,26.5,"09:54:40",1
"17/07/08","10:10",0.0,30.1,72.0,1006.0,164.7,1.1,2.4,192.2,0.38,24.5,26.6,"10:09:12",1
"17/07/08","10:20",0.0,30.1,73.4,1006.2,172.8,1.3,2.7,179.5,0.40,24.9,26.6,"10:16:48",1
"17/07/08","10:30",0.0,30.4,70.8,1006.2,172.9,1.1,2.6,209.5,0.40,24.5,26.8,"10:25:36",1
"17/07/08","10:40",0.0,30.8,69.0,1006.2,115.1,1.0,2.1,153.5,0.42,24.5,27.0,"10:38:48",1
"17/07/08","10:50",0.0,30.9,69.8,1006.2,177.1,1.2,2.4,225.9,0.41,24.8,27.1,"10:41:28",1
"17/07/08","11:00",0.0,31.2,67.7,1006.4,196.0,1.0,2.7,170.6,0.42,24.6,27.3,"10:59:20",1
"17/07/08","11:10",0.0,30.9,69.0,1006.4,221.6,0.8,2.2,170.3,0.37,24.6,27.4,"11:02:08",1
"17/07/08","11:20",0.0,30.4,69.5,1006.0,13.1,0.8,1.9,161.5,0.15,24.2,27.5,"11:17:04",1
"17/07/08","11:30",0.0,31.5,69.3,1005.5,170.8,0.7,2.2,123.5,0.34,25.2,27.6,"11:28:24",1
"17/07/08","11:40",0.0,32.0,61.3,1005.7,164.2,1.0,2.4,183.3,0.54,23.7,27.8,"11:35:12",1
"17/07/08","11:50",0.0,31.2,64.0,1005.7,155.4,1.0,3.4,221.1,0.24,23.6,27.8,"11:48:48",1
"17/07/08","12:00",0.0,32.1,64.9,1006.0,148.8,1.0,2.0,188.9,0.42,24.7,28.1,"11:51:20",1
"17/07/08","12:10",0.0,32.2,61.2,1005.7,147.6,0.6,1.9,110.2,0.36,23.8,28.0,"12:00:48",1
"17/07/08","12:20",0.0,32.3,63.6,1005.7,186.1,1.1,2.9,200.1,0.46,24.6,28.2,"12:14:40",1
"17/07/08","12:30",0.0,33.1,60.2,1006.0,90.2,1.0,3.3,223.0,0.53,24.4,28.4,"12:21:04",1
"17/07/08","12:40",0.0,32.7,60.3,1005.7,85.6,0.8,2.7,189.4,0.49,24.0,28.5,"12:37:12",1
"17/07/08","12:50",0.0,33.5,59.8,1005.7,143.5,0.8,2.1,111.9,0.57,24.6,28.6,"12:46:24",1
"17/07/08","13:00",0.0,33.6,55.9,1006.0,166.9,1.3,2.5,219.4,0.64,23.6,28.8,"12:59:28",1
"17/07/08","13:10",0.0,32.3,59.0,1006.0,157.4,1.2,3.1,184.2,0.30,23.3,29.0,"13:06:40",1
"17/07/08","13:20",0.0,33.4,60.6,1005.5,157.5,1.5,3.7,203.4,0.51,24.8,29.0,"13:15:12",1
"17/07/08","13:30",0.0,33.3,58.3,1005.5,206.1,1.2,3.1,185.4,0.34,24.0,28.9,"13:21:12",1
"17/07/08","13:40",0.0,33.7,56.0,1005.0,190.2,1.7,3.9,221.4,0.52,23.7,28.7,"13:36:24",1
"17/07/08","13:50",0.0,33.7,55.4,1005.7,144.0,1.1,2.6,128.4,0.49,23.6,29.0,"13:48:56",1
"17/07/08","14:00",0.0,33.7,56.7,1005.5,185.7,0.6,1.3,81.3,0.35,23.9,28.9,"13:52:00",1
"17/07/08","14:10",0.0,34.1,54.8,1005.0,235.3,1.3,4.0,193.1,0.50,23.8,29.0,"14:06:16",1
"17/07/08","14:20",0.0,32.5,59.0,1005.0,236.6,0.8,2.1,226.9,0.13,23.5,29.1,"14:10:24",1
"17/07/08","14:30",0.0,33.0,59.0,1004.5,257.7,0.8,2.7,329.2,0.21,24.0,29.0,"14:20:40",1
"17/07/08","14:40",0.0,33.4,57.0,1004.3,227.1,1.8,3.6,196.8,0.40,23.8,29.2,"14:33:52",1
"17/07/08","14:50",0.0,33.4,59.2,1004.5,257.6,1.2,3.5,226.2,0.43,24.4,29.0,"14:44:00",1
"17/07/08","15:00",0.0,34.0,57.0,1004.3,260.6,1.0,2.5,352.3,0.42,24.3,29.1,"14:56:24",1
"17/07/08","15:10",0.0,34.4,53.3,1004.1,273.6,1.1,3.3,216.9,0.45,23.6,29.2,"15:00:16",1
"17/07/08","15:20",0.0,33.6,58.6,1003.8,318.0,1.3,3.5,344.3,0.27,24.4,29.2,"15:10:08",1
"17/07/08","15:30",0.0,34.2,57.3,1004.1,214.7,1.5,2.8,238.1,0.44,24.6,29.4,"15:23:52",1
"17/07/08","15:40",0.0,34.6,54.5,1004.3,321.1,1.5,3.4,342.1,0.44,24.1,29.4,"15:39:04",1
"17/07/08","15:50",0.0,34.5,54.1,1004.1,308.7,1.3,3.2,312.6,0.40,23.9,29.5,"15:42:32",1
"17/07/08","16:00",0.0,34.2,55.0,1004.1,309.9,1.5,4.5,1.7,0.36,23.9,29.7,"15:50:56",1
"17/07/08","16:10",0.0,34.0,55.6,1004.1,324.2,1.5,5.6,349.5,0.30,23.9,29.5,"16:01:12",1
"17/07/08","16:20",0.0,34.0,53.9,1003.8,305.7,1.7,4.4,358.7,0.34,23.4,29.5,"16:17:04",1
"17/07/08","16:30",0.0,33.6,56.5,1003.6,308.8,1.6,3.9,243.2,0.29,23.8,29.7,"16:22:32",1
"17/07/08","16:40",0.0,32.9,57.8,1003.4,281.1,1.3,3.5,313.2,0.20,23.5,29.7,"16:38:56",1
"17/07/08","16:50",0.0,32.4,59.2,1003.6,278.5,1.1,2.5,234.3,0.11,23.5,29.7,"16:40:40",1
"17/07/08","17:00",0.0,32.1,61.2,1003.4,268.5,1.0,2.8,320.8,0.04,23.7,29.6,"16:59:12",1
"17/07/08","17:10",0.0,31.5,63.2,1002.6,296.6,1.2,3.4,342.0,0.03,23.7,29.5,"17:03:12",1
"17/07/08","17:20",0.0,31.2,64.2,1002.6,278.6,1.0,2.7,348.4,0.01,23.7,29.4,"17:10:02",1
"17/07/08","17:30",0.0,30.7,64.7,1002.9,10.3,0.8,2.1,358.1,0.00,23.3,29.6,"17:25:04",1
"17/07/08","17:40",0.0,29.6,68.0,1002.6,168.6,0.7,1.8,352.9,0.00,23.1,29.4,"17:38:32",1
"17/07/08","17:50",0.0,28.9,69.8,1002.4,53.8,1.5,2.8,15.1,0.00,22.9,29.1,"17:47:12",1
"17/07/08","18:00",0.0,28.5,72.4,1002.4,36.1,1.0,2.9,82.3,0.00,23.1,29.1,"17:51:44",1
"17/07/08","18:10",0.0,28.1,76.6,1002.9,343.7,1.8,4.4,343.8,0.00,23.6,28.9,"18:09:00",1
"17/07/08","18:20",0.0,26.5,82.4,1002.9,9.7,2.0,4.1,22.8,0.00,23.3,28.5,"18:14:48",1
"17/07/08","18:30",0.0,25.8,85.7,1003.4,344.6,1.8,3.5,344.8,0.00,23.3,28.5,"18:27:12",1
"17/07/08","18:40",0.0,25.7,87.2,1003.4,261.6,0.7,2.5,238.0,0.00,23.5,28.3,"18:36:24",1
"17/07/08","18:50",0.0,25.6,88.1,1003.4,248.4,0.7,1.6,231.2,0.00,23.5,28.1,"18:41:28",1
"17/07/08","19:00",0.0,25.7,88.5,1003.8,292.4,1.0,2.0,329.2,0.00,23.7,28.1,"18:57:20",1
"17/07/08","19:10",0.0,25.5,89.0,1004.1,346.7,1.2,2.2,349.5,0.00,23.6,28.0,"19:02:56",1
"17/07/08","19:20",0.0,25.6,89.3,1004.3,31.0,0.5,1.8,350.0,0.00,23.7,27.9,"19:18:40",1
"17/07/08","19:30",0.0,25.3,89.3,1004.1,318.1,0.6,1.4,341.5,0.00,23.5,27.7,"19:23:36",1
"17/07/08","19:40",0.0,25.2,89.9,1004.1,285.0,0.3,0.8,352.2,0.00,23.5,27.7,"19:33:44",1
"17/07/08","19:50",0.0,25.1,90.6,1004.5,347.4,1.0,2.2,339.2,0.00,23.5,27.6,"19:44:48",1
"17/07/08","20:00",0.0,25.0,90.8,1004.1,351.5,0.3,1.0,11.6,0.00,23.4,27.5,"19:51:28",1
"17/07/08","20:10",0.0,24.8,91.3,1004.3,287.6,0.3,0.6,310.7,0.00,23.3,27.5,"20:05:20",1
"17/07/08","20:20",0.0,24.8,91.5,1004.3,307.2,0.2,0.9,290.0,0.00,23.4,27.4,"20:11:44",1
"17/07/08","20:30",0.0,24.6,91.8,1004.1,187.1,0.2,0.9,301.2,0.00,23.2,27.4,"20:28:00",1
"17/07/08","20:40",0.0,24.6,92.1,1004.3,299.3,0.5,1.7,345.9,0.00,23.3,27.3,"20:38:32",1
"17/07/08","20:50",0.0,24.6,92.3,1004.3,358.9,0.7,1.3,347.2,0.00,23.3,27.1,"20:41:28",1
"17/07/08","21:00",0.0,24.6,92.5,1003.8,349.0,0.7,1.3,1.5,0.00,23.3,27.0,"20:53:04",1
"17/07/08","21:10",0.0,24.5,92.8,1003.8,338.5,0.5,1.0,333.7,0.00,23.3,27.0,"21:01:20",1
"17/07/08","21:20",0.0,24.4,92.8,1004.1,274.8,0.3,0.8,338.0,0.00,23.2,27.1,"21:10:32",1
"17/07/08","21:30",0.0,24.3,92.9,1004.3,283.1,0.2,0.8,290.3,0.00,23.1,26.9,"21:27:04",1
"17/07/08","21:40",0.0,24.3,93.0,1004.3,303.5,0.5,0.9,307.3,0.00,23.1,27.1,"21:30:24",1
"17/07/08","21:50",0.0,24.3,93.3,1004.3,335.8,0.7,1.6,340.5,0.00,23.2,26.8,"21:46:16",1
"17/07/08","22:00",0.0,24.2,93.3,1004.5,268.6,0.2,0.8,271.6,0.00,23.1,26.8,"21:55:36",1
"17/07/08","22:10",0.0,24.2,93.4,1004.5,338.8,0.6,1.3,348.2,0.00,23.1,26.9,"22:04:16",1
"17/07/08","22:20",0.0,24.0,93.5,1004.3,322.5,0.6,1.2,333.9,0.00,22.9,26.8,"22:14:00",1
"17/07/08","22:30",0.0,24.0,93.6,1004.8,278.2,0.3,0.8,301.5,0.00,22.9,26.7,"22:22:16",1
"17/07/08","22:40",0.0,23.9,93.7,1004.5,306.5,0.8,1.6,332.5,0.00,22.9,26.7,"22:37:12",1
"17/07/08","22:50",0.0,23.9,93.7,1004.5,310.7,0.3,1.3,348.4,0.00,22.9,26.4,"22:43:12",1
"17/07/08","23:00",0.0,23.8,93.8,1004.5,264.5,0.3,1.0,311.9,0.00,22.8,26.2,"22:58:24",1
"17/07/08","23:10",0.0,23.8,93.8,1004.3,298.4,0.5,1.1,341.9,0.00,22.8,26.2,"23:03:04",1
"17/07/08","23:20",0.0,23.8,94.0,1004.8,318.8,0.5,0.9,316.9,0.00,22.8,26.3,"23:10:08",1
"17/07/08","23:30",0.0,23.7,93.9,1004.8,255.8,0.6,1.0,253.2,0.00,22.7,26.3,"23:20:02",1
"17/07/08","23:40",0.0,23.8,94.0,1004.5,259.6,0.8,1.4,333.8,0.00,22.8,26.1,"23:32:00",1
"17/07/08","23:50",0.0,23.8,93.9,1004.8,291.1,0.3,0.9,323.0,0.00,22.8,26.0,"23:41:04",1
"17/07/08","24:00",0.0,23.7,94.0,1004.8,288.9,0.3,1.2,262.9,0.00,22.7,26.2,"23:58:00",1
